LEMUR-2-MONSON

Last updated on Wed Feb 14 2018 16:20:51 GMT+0000 (Greenwich Mean Time)

1 42839U 17042Q 18045.45915466 .00000310 00000-0 36458-4 0 9992 2 42839 97.6072 312.5433 0011639 243.0096 116.9935 14.91347745 32064
UTC large
Height (km)
Speed (km/s)
/
Latitude / Longitude
Inclination (degrees)
Orbital Period (minutes)
Azimuth
Elevation
Range (km)
Doppler Factor

Next 0 passes for location: London (51.5072 / 0.1276)

Sorry there are no passes over London.